R1OCD-13 Weather Reports


Display with metric or nautical units.
time (UTC)temp
F
wind
direction
speed
MPH
gust
MPH
rain 1hr
in
rain 24hr
in
rain mn
in
humidity
%
barometer
mb
20260503213339 36 0 0.0 0.0 0.00 0.00 0.00 99 1005.0
20260503211825 38 0 0.0 0.0 0.00 0.00 0.00 99 1005.0
20260503210311 38 0 0.0 0.0 0.00 0.00 0.00 99 1005.0
20260503204806 38 0 0.0 0.0 0.00 0.00 0.00 99 1005.0
20260503203256 38 0 0.0 0.0 0.00 0.00 0.00 99 1005.0
20260503201753 38 0 0.0 0.0 0.00 0.00 0.00 99 1005.0
20260503200239 41 0 0.0 0.0 0.00 0.00 0.00 99 1005.0
20260503194734 41 0 0.0 0.0 0.00 0.00 0.00 99 1005.0
20260503193219 41 0 0.0 0.0 0.00 0.00 0.00 99 1005.0
20260503184654 41 0 0.0 0.0 0.00 0.00 0.00 99 1005.0
20260503183139 41 0 0.0 0.0 0.00 0.00 0.00 99 1005.0
20260503181626 41 0 0.0 0.0 0.00 0.00 0.00 99 1004.0
20260503180112 43 0 0.0 0.0 0.00 0.00 0.00 99 1004.0
20260503174558 43 0 0.0 0.0 0.00 0.00 0.00 99 1004.0
20260503131353 52 0 0.0 0.0 0.00 0.00 0.00 54 1003.0
20260503081044 50 0 0.0 0.0 0.00 0.00 0.00 62 1001.0
20260503072535 48 0 0.0 0.0 0.00 0.00 0.00 66 1001.0
20260503071021 48 0 0.0 0.0 0.00 0.00 0.00 66 1001.0
20260503053932 47 0 0.0 0.0 0.00 0.00 0.00 76 1001.0
20260503052418 45 0 0.0 0.0 0.00 0.00 0.00 81 1000.0
20260503050904 45 0 0.0 0.0 0.00 0.00 0.00 81 1000.0
20260503045358 45 0 0.0 0.0 0.00 0.00 0.00 76 1000.0
20260503043844 45 0 0.0 0.0 0.00 0.00 0.00 76 1000.0
20260503042330 45 0 0.0 0.0 0.00 0.00 0.00 81 1000.0
20260503040816 45 0 0.0 0.0 0.00 0.00 0.00 81 1000.0
20260503035304 45 0 0.0 0.0 0.00 0.00 0.00 81 1000.0
20260503023728 47 0 0.0 0.0 0.00 0.00 0.00 76 1000.0
20260503022214 48 0 0.0 0.0 0.00 0.00 0.00 87 999.0
20260503020700 48 0 0.0 0.0 0.00 0.00 0.00 87 999.0
20260503015157 50 0 0.0 0.0 0.00 0.00 0.00 81 1000.0
20260503013652 50 0 0.0 0.0 0.00 0.00 0.00 81 1000.0
20260503012138 52 0 0.0 0.0 0.00 0.00 0.00 76 999.0
20260503010624 52 0 0.0 0.0 0.00 0.00 0.00 76 1000.0
20260503005111 52 0 0.0 0.0 0.00 0.00 0.00 71 1000.0
20260503003557 52 0 0.0 0.0 0.00 0.00 0.00 71 1000.0
20260503002056 54 0 0.0 0.0 0.00 0.00 0.00 62 999.0
20260503000550 54 0 0.0 0.0 0.00 0.00 0.00 62 1000.0
20260502235035 54 0 0.0 0.0 0.00 0.00 0.00 58 1001.0
20260502230519 56 0 0.0 0.0 0.00 0.00 0.00 50 1000.0
20260502225005 56 0 0.0 0.0 0.00 0.00 0.00 47 1001.0
20260502223451 56 0 0.0 0.0 0.00 0.00 0.00 47 1000.0
20260502221947 56 0 0.0 0.0 0.00 0.00 0.00 47 999.0